• In Hungary
  • List of Countries
  • For 7 days
  • Water Temperature
  • Satellite Maps
  • Weather Map
  • News
  • Weather Widgets
  • user-avatar
    Login

    Hourly Weather Springville

    Today, 22 September, Saturday

    Time Temperature Precipitation Wind Pressure Humidity
    00:00 +15°C° 0 mm 2 mps 640 mmHg 21%
    01:00 +15°C° 0 mm 2 mps 640 mmHg 21%
    02:00 +14°C° 0 mm 2 mps 640 mmHg 21%
    03:00 +14°C° 0 mm 2 mps 640 mmHg 21%
    04:00 +14°C° 0 mm 2 mps 640 mmHg 21%
    05:00 +14°C° 0 mm 2 mps 640 mmHg 21%
    06:00 +16°C° 0 mm 2 mps 641 mmHg 20%
    07:00 +18°C° 0 mm 2 mps 642 mmHg 20%
    08:00 +20°C° 0 mm 2 mps 643 mmHg 19%
    09:00 +22°C° 0 mm 3 mps 643 mmHg 18%
    10:00 +26°C° 0 mm 4 mps 643 mmHg 16%
    11:00 +28°C° 0 mm 4 mps 644 mmHg 14%
    12:00 +28°C° 0 mm 5 mps 643 mmHg 15%
    13:00 +29°C° 0 mm 5 mps 643 mmHg 16%
    14:00 +30°C° 0 mm 6 mps 642 mmHg 16%
    15:00 +29°C° 0 mm 6 mps 642 mmHg 18%
    16:00 +29°C° 0 mm 5 mps 641 mmHg 20%
    17:00 +28°C° 0 mm 5 mps 640 mmHg 22%
    18:00 +26°C° 0 mm 4 mps 640 mmHg 27%
    19:00 +22°C° 0 mm 4 mps 639 mmHg 31%
    20:00 +20°C° 0 mm 3 mps 639 mmHg 36%
    21:00 +19°C° 0 mm 3 mps 639 mmHg 37%
    22:00 +19°C° 0 mm 3 mps 639 mmHg 38%
    23:00 +18°C° 0 mm 3 mps 638 mmHg 39%

    Tomorrow, 23 September, Sunday

    Time Temperature Precipitation Wind Pressure Humidity
    00:00 +18°C° 0 mm 3 mps 638 mmHg 40%
    01:00 +17°C° 0 mm 3 mps 638 mmHg 41%
    02:00 +17°C° 0 mm 3 mps 638 mmHg 42%
    03:00 +17°C° 0 mm 3 mps 638 mmHg 44%
    04:00 +16°C° 0 mm 3 mps 638 mmHg 45%
    05:00 +16°C° 0 mm 3 mps 638 mmHg 47%
    06:00 +17°C° 0 mm 3 mps 638 mmHg 43%
    07:00 +19°C° 0 mm 3 mps 639 mmHg 39%
    08:00 +21°C° 0 mm 4 mps 640 mmHg 35%
    09:00 +23°C° 0 mm 5 mps 640 mmHg 30%
    10:00 +26°C° 0 mm 6 mps 640 mmHg 26%
    11:00 +28°C° 0 mm 8 mps 641 mmHg 21%
    12:00 +28°C° 0 mm 8 mps 640 mmHg 20%
    13:00 +29°C° 0 mm 8 mps 640 mmHg 20%
    14:00 +29°C° 0 mm 8 mps 639 mmHg 19%
    15:00 +28°C° 0 mm 8 mps 638 mmHg 21%
    16:00 +27°C° 0 mm 7 mps 638 mmHg 24%
    17:00 +27°C° 0 mm 6 mps 637 mmHg 26%
    18:00 +23°C° 0.2 mm 5 mps 637 mmHg 34%
    19:00 +21°C° 0.2 mm 3 mps 637 mmHg 42%
    20:00 +19°C° 0.2 mm 2 mps 636 mmHg 51%
    21:00 +18°C° 0.2 mm 2 mps 636 mmHg 55%
    22:00 +17°C° 0.2 mm 2 mps 637 mmHg 60%
    23:00 +17°C° 0.2 mm 2 mps 637 mmHg 65%

    Day after tomorrow, 24 September, Monday

    Time Temperature Precipitation Wind Pressure Humidity
    00:00 +16°C° 0 mm 1 mps 637 mmHg 67%
    01:00 +15°C° 0 mm 1 mps 636 mmHg 68%
    02:00 +14°C° 0 mm 1 mps 636 mmHg 70%
    03:00 +13°C° 0 mm 1 mps 636 mmHg 70%
    04:00 +12°C° 0 mm 1 mps 636 mmHg 71%
    05:00 +12°C° 0 mm 1 mps 637 mmHg 72%
    06:00 +13°C° 0 mm 1 mps 637 mmHg 65%
    07:00 +15°C° 0 mm 1 mps 638 mmHg 58%
    08:00 +16°C° 0 mm 1 mps 639 mmHg 51%
    09:00 +18°C° 0 mm 2 mps 640 mmHg 43%
    10:00 +20°C° 0 mm 2 mps 640 mmHg 34%
    11:00 +22°C° 0 mm 3 mps 641 mmHg 26%
    12:00 +24°C° 0 mm 3 mps 641 mmHg 24%
    13:00 +23°C° 0 mm 4 mps 640 mmHg 21%
    14:00 +25°C° 0 mm 4 mps 640 mmHg 19%
    15:00 +25°C° 0 mm 4 mps 640 mmHg 20%
    16:00 +23°C° 0 mm 4 mps 640 mmHg 21%
    17:00 +23°C° 0 mm 4 mps 639 mmHg 21%
    18:00 +20°C° 0 mm 3 mps 639 mmHg 28%
    19:00 +17°C° 0 mm 2 mps 638 mmHg 34%
    20:00 +14°C° 0 mm 1 mps 638 mmHg 41%
    21:00 +13°C° 0 mm 1 mps 638 mmHg 42%
    22:00 +13°C° 0 mm 1 mps 638 mmHg 43%
    23:00 +12°C° 0 mm 1 mps 638 mmHg 44%

    25 September, Tuesday

    Time Temperature Precipitation Wind Pressure Humidity
    00:00 +12°C° 0 mm 1 mps 638 mmHg 45%
    01:00 +12°C° 0 mm 1 mps 637 mmHg 46%
    02:00 +11°C° 0 mm 1 mps 637 mmHg 46%
    03:00 +11°C° 0 mm 1 mps 637 mmHg 47%
    04:00 +11°C° 0 mm 1 mps 637 mmHg 48%
    05:00 +10°C° 0 mm 1 mps 637 mmHg 48%
    06:00 +12°C° 0 mm 1 mps 639 mmHg 43%
    07:00 +14°C° 0 mm 1 mps 640 mmHg 37%
    08:00 +16°C° 0 mm 1 mps 641 mmHg 31%
    09:00 +18°C° 0 mm 2 mps 641 mmHg 28%
    10:00 +20°C° 0 mm 2 mps 642 mmHg 24%
    11:00 +21°C° 0 mm 3 mps 642 mmHg 20%
    12:00 +22°C° 0 mm 3 mps 642 mmHg 18%
    13:00 +23°C° 0 mm 4 mps 642 mmHg 17%
    14:00 +23°C° 0 mm 4 mps 642 mmHg 15%
    15:00 +23°C° 0 mm 4 mps 641 mmHg 16%
    16:00 +22°C° 0 mm 4 mps 641 mmHg 17%
    17:00 +21°C° 0 mm 4 mps 641 mmHg 17%
    18:00 +18°C° 0 mm 3 mps 640 mmHg 22%
    19:00 +15°C° 0 mm 2 mps 640 mmHg 28%
    20:00 +12°C° 0 mm 1 mps 639 mmHg 33%
    21:00 +12°C° 0 mm 1 mps 639 mmHg 34%
    22:00 +11°C° 0 mm 1 mps 639 mmHg 36%
    23:00 +10°C° 0 mm 1 mps 639 mmHg 38%

    26 September, Wednesday

    Time Temperature Precipitation Wind Pressure Humidity
    00:00 +10°C° 0 mm 1 mps 639 mmHg 38%
    01:00 +10°C° 0 mm 1 mps 639 mmHg 39%
    02:00 +9°C° 0 mm 1 mps 639 mmHg 39%
    03:00 +9°C° 0 mm 1 mps 638 mmHg 39%
    04:00 +9°C° 0 mm 1 mps 638 mmHg 39%
    05:00 +9°C° 0 mm 1 mps 638 mmHg 39%
    06:00 +11°C° 0 mm 1 mps 639 mmHg 34%
    07:00 +13°C° 0 mm 1 mps 640 mmHg 30%
    08:00 +15°C° 0 mm 1 mps 641 mmHg 25%
    09:00 +17°C° 0 mm 2 mps 641 mmHg 21%
    10:00 +19°C° 0 mm 2 mps 642 mmHg 18%
    11:00 +21°C° 0 mm 2 mps 642 mmHg 14%
    12:00 +22°C° 0 mm 3 mps 642 mmHg 13%
    13:00 +24°C° 0 mm 3 mps 642 mmHg 13%
    14:00 +25°C° 0 mm 3 mps 641 mmHg 12%
    15:00 +25°C° 0 mm 3 mps 641 mmHg 13%
    16:00 +24°C° 0 mm 3 mps 640 mmHg 14%
    17:00 +24°C° 0 mm 3 mps 640 mmHg 15%
    18:00 +20°C° 0 mm 3 mps 639 mmHg 21%
    19:00 +17°C° 0 mm 2 mps 639 mmHg 26%
    20:00 +14°C° 0 mm 1 mps 638 mmHg 31%
    21:00 +13°C° 0 mm 1 mps 638 mmHg 30%
    22:00 +13°C° 0 mm 2 mps 638 mmHg 29%
    23:00 +13°C° 0 mm 2 mps 638 mmHg 28%

    27 September, Thursday

    Time Temperature Precipitation Wind Pressure Humidity
    00:00 +13°C° 0 mm 2 mps 638 mmHg 28%
    01:00 +12°C° 0 mm 2 mps 638 mmHg 28%
    02:00 +12°C° 0 mm 2 mps 637 mmHg 28%
    03:00 +12°C° 0 mm 2 mps 637 mmHg 28%
    04:00 +12°C° 0 mm 2 mps 637 mmHg 28%
    05:00 +12°C° 0 mm 2 mps 637 mmHg 29%
    06:00 +14°C° 0 mm 2 mps 638 mmHg 26%
    07:00 +16°C° 0 mm 2 mps 639 mmHg 24%
    08:00 +18°C° 0 mm 2 mps 640 mmHg 22%
    09:00 +20°C° 0 mm 2 mps 640 mmHg 19%
    10:00 +24°C° 0 mm 2 mps 641 mmHg 17%
    11:00 +26°C° 0 mm 3 mps 641 mmHg 14%
    12:00 +27°C° 0 mm 3 mps 641 mmHg 13%
    13:00 +28°C° 0 mm 4 mps 640 mmHg 12%
    14:00 +29°C° 0 mm 4 mps 640 mmHg 12%
    15:00 +28°C° 0 mm 4 mps 640 mmHg 12%
    16:00 +28°C° 0 mm 4 mps 639 mmHg 13%
    17:00 +27°C° 0 mm 4 mps 639 mmHg 14%
    18:00 +24°C° 0 mm 3 mps 638 mmHg 17%
    19:00 +20°C° 0 mm 2 mps 637 mmHg 21%
    20:00 +17°C° 0 mm 2 mps 637 mmHg 25%
    21:00 +17°C° 0 mm 2 mps 637 mmHg 24%
    22:00 +17°C° 0 mm 2 mps 636 mmHg 24%
    23:00 +16°C° 0 mm 3 mps 636 mmHg 24%
    Show more